This is the latest recevied weather packets stored in our database for station/object WE1C. If no packets are shown the sender has not sent any weather packets the latest 10 day(s).
| Time | Temp. | Humidity | Pressure | Rain* | Wind** | Luminosity | Snow |
|---|---|---|---|---|---|---|---|
| 1778023035 | 21.67° C | 50% | 1037.1 hPa | 0 mm | - | 29 W/m² | - |
| 1778022735 | 21.67° C | 50% | 1036.9 hPa | 0 mm | - | 36 W/m² | - |
| 1778022432 | 21.67° C | 50% | 1037.1 hPa | 0 mm | - | 43 W/m² | - |
| 1778022129 | 21.67° C | 49% | 1036.6 hPa | 0 mm | - | 47 W/m² | - |
| 1778021825 | 21.67° C | 49% | 1036.7 hPa | 0 mm | - | 54 W/m² | - |
| 1778021521 | 22.22° C | 49% | 1036.4 hPa | 0 mm | - | 55 W/m² | - |
| 1778021217 | 22.22° C | 48% | 1036.4 hPa | 0 mm | - | 61 W/m² | - |
| 1778020915 | 22.78° C | 48% | 1036.6 hPa | 0 mm | - | 64 W/m² | - |
| 1778020612 | 22.78° C | 47% | 1036.5 hPa | 0 mm | - | 68 W/m² | - |
| 1778020308 | 22.78° C | 47% | 1036.4 hPa | 0 mm | - | 72 W/m² | - |
| 1778020005 | 22.78° C | 46% | 1036.2 hPa | 0 mm | - | 75 W/m² | - |
| 1778019701 | 23.33° C | 46% | 1036.2 hPa | 0 mm | - | 85 W/m² | - |
| 1778019392 | 23.33° C | 46% | 1036.2 hPa | 0 mm | - | 85 W/m² | - |
| 1778019089 | 23.33° C | 46% | 1036.2 hPa | 0 mm | - | 102 W/m² | - |
| 1778018787 | 23.89° C | 45% | 1035.8 hPa | 0 mm | - | 106 W/m² | - |
| 1778018483 | 23.89° C | 44% | 1035.8 hPa | 0 mm | - | 120 W/m² | - |
| 1778018181 | 23.89° C | 44% | 1035.8 hPa | 0 mm | - | 125 W/m² | - |
| 1778017880 | 23.89° C | 44% | 1036 hPa | 0 mm | - | 113 W/m² | - |
| 1778017577 | 24.44° C | 43% | 1036.1 hPa | 0 mm | - | 110 W/m² | - |
| 1778017273 | 24.44° C | 42% | 1035.9 hPa | 0 mm | - | 115 W/m² | - |
| 1778016971 | 24.44° C | 41% | 1035.9 hPa | 0 mm | - | 137 W/m² | - |
| 1778016667 | 25° C | 41% | 1036.1 hPa | 0 mm | - | 146 W/m² | - |
| 1778016364 | 25° C | 41% | 1035.8 hPa | 0 mm | - | 155 W/m² | - |
| 1778016062 | 25° C | 41% | 1035.8 hPa | 0 mm | - | 121 W/m² | - |
| 1778015759 | 25° C | 40% | 1035.8 hPa | 0 mm | - | 127 W/m² | - |
* Rain latest hour (hover to see other rain measurements)
** Current wind speed in m/s (hover to see current wind gust speed)